Adelanto, California, United States (92301)
Lat: 34.58N, Lon: 117.41W
Wx Zone: CAZ060
Local Info
Past Weather Observations for Wednesday, April 27, 2016

NOTE: This archive is for the closest National Weather Service station to Adelanto. Information may differ from the station used for current weather conditions.

Click here for Long-term Archive

Time Weather Temperature Dewpoint Humidity Pressure Winds Precip Visibility
23:55
Overcast
Light Rain
48°F / 9°C 39°F / 4°C 71% 29.71 in
(1006 mb)
SSW 21.9 mph
(SSW 35 kph)
- 10SM
23:35
Overcast
50°F / 10°C 39°F / 4°C 67% 29.71 in
(1006 mb)
W 21.9 mph
(W 35 kph)
- 10SM
23:15
Overcast
48°F / 9°C 39°F / 4°C 71% 29.71 in
(1006 mb)
W 19.6 mph
(W 32 kph)
- 10SM
22:55
Mostly Cloudy
50°F / 10°C 39°F / 4°C 67% 29.71 in
(1006 mb)
SSW 20.7 mph
(SSW 33 kph)
- 10SM
22:35
Partly Cloudy
50°F / 10°C 39°F / 4°C 67% 29.71 in
(1006 mb)
SSW 21.9 mph
(SSW 35 kph)
- 10SM
22:15
Clear
50°F / 10°C 37°F / 3°C 62% 29.71 in
(1006 mb)
SSW 23 mph
(SSW 37 kph)
- 10SM
21:55
Clear
52°F / 11°C 37°F / 3°C 58% 29.71 in
(1006 mb)
SSW 23 mph
(SSW 37 kph)
- 10SM
21:35
Clear
52°F / 11°C 37°F / 3°C 58% 29.71 in
(1006 mb)
SSW 15 mph
(SSW 24 kph)
- 10SM
21:15
Partly Cloudy
52°F / 11°C 36°F / 2°C 54% 29.74 in
(1007 mb)
SSW 6.9 mph
(SSW 11 kph)
- 10SM
20:55
Partly Cloudy
54°F / 12°C 32°F / 0°C 44% 29.74 in
(1007 mb)
W 16.1 mph
(W 26 kph)
- 10SM
20:35
Partly Cloudy
55°F / 13°C 32°F / 0°C 41% 29.71 in
(1006 mb)
W 12.7 mph
(W 20 kph)
- 10SM
20:15
Partly Cloudy
55°F / 13°C 30°F / -1°C 38% 29.71 in
(1006 mb)
W 11.5 mph
(W 19 kph)
- 10SM
19:55
Partly Cloudy
55°F / 13°C 30°F / -1°C 38% 29.71 in
(1006 mb)
W 11.5 mph
(W 19 kph)
- 10SM
19:35
Mostly Cloudy
55°F / 13°C 36°F / 2°C 47% 29.71 in
(1006 mb)
SSW 12.7 mph
(SSW 20 kph)
- 10SM
19:15
Partly Cloudy
55°F / 13°C 36°F / 2°C 47% 29.71 in
(1006 mb)
SSW 16.1 mph
(SSW 26 kph)
- 10SM
18:55
Partly Cloudy
57°F / 14°C 36°F / 2°C 44% 29.74 in
(1007 mb)
SSW 24.2 mph
(SSW 39 kph)
- 10SM
18:35
Mostly Cloudy
61°F / 16°C 34°F / 1°C 36% 29.71 in
(1006 mb)
W 27.6 mph
(W 44 kph)
- 10SM
18:15
Mostly Cloudy
63°F / 17°C 27°F / -3°C 25% 29.71 in
(1006 mb)
SW 12.7 mph
(SW 20 kph)
- 10SM
17:55
Partly Cloudy
63°F / 17°C 27°F / -3°C 25% 29.71 in
(1006 mb)
SSW 23 mph
(SSW 37 kph)
- 10SM
17:35
Partly Cloudy
64°F / 18°C 14°F / -10°C 14% 29.71 in
(1006 mb)
WNW 20.7 mph
(WNW 33 kph)
- 10SM
17:15
Partly Cloudy
64°F / 18°C 23°F / -5°C 21% 29.71 in
(1006 mb)
W 18.4 mph
(W 30 kph)
- 10SM
16:55
Partly Cloudy
66°F / 19°C 34°F / 1°C 30% 29.71 in
(1006 mb)
W 16.1 mph
(W 26 kph)
- 10SM
16:35
Partly Cloudy
70°F / 21°C 34°F / 1°C 27% 29.71 in
(1006 mb)
SSW 21.9 mph
(SSW 35 kph)
- 10SM
16:15
Clear
70°F / 21°C 27°F / -3°C 20% 29.71 in
(1006 mb)
WNW 18.4 mph
(WNW 30 kph)
- 10SM
15:55
Partly Cloudy
70°F / 21°C 27°F / -3°C 20% 29.71 in
(1006 mb)
W 27.6 mph
(W 44 kph)
- 10SM
15:35
Clear
70°F / 21°C 28°F / -2°C 21% 29.71 in
(1006 mb)
W 26.5 mph
(W 43 kph)
- 10SM
15:15
Partly Cloudy
70°F / 21°C 23°F / -5°C 17% 29.71 in
(1006 mb)
W 29.9 mph
(W 48 kph)
- 10SM
14:55
Partly Cloudy
72°F / 22°C 21°F / -6°C 15% 29.74 in
(1007 mb)
W 26.5 mph
(W 43 kph)
- 10SM
14:35
Partly Cloudy
72°F / 22°C 21°F / -6°C 15% 29.74 in
(1007 mb)
W 26.5 mph
(W 43 kph)
- 10SM
14:15
Partly Cloudy
72°F / 22°C 21°F / -6°C 15% 29.77 in
(1008 mb)
W 19.6 mph
(W 32 kph)
- 10SM
13:55
Clear
72°F / 22°C 23°F / -5°C 16% 29.77 in
(1008 mb)
W 21.9 mph
(W 35 kph)
- 10SM
13:35
Partly Cloudy
72°F / 22°C 25°F / -4°C 17% 29.77 in
(1008 mb)
WNW 17.3 mph
(WNW 28 kph)
- 10SM
13:15
Partly Cloudy
70°F / 21°C 27°F / -3°C 20% 29.77 in
(1008 mb)
W 18.4 mph
(W 30 kph)
- 10SM
12:55
Partly Cloudy
70°F / 21°C 27°F / -3°C 20% 29.8 in
(1009 mb)
W 16.1 mph
(W 26 kph)
- 10SM
12:35
Partly Cloudy
70°F / 21°C 27°F / -3°C 20% 29.8 in
(1009 mb)
W 17.3 mph
(W 28 kph)
- 10SM
12:15
Partly Cloudy
68°F / 20°C 27°F / -3°C 21% 29.8 in
(1009 mb)
W 19.6 mph
(W 32 kph)
- 10SM
11:55
Partly Cloudy
68°F / 20°C 27°F / -3°C 21% 29.8 in
(1009 mb)
W 27.6 mph
(W 44 kph)
- 10SM
11:35
Partly Cloudy
66°F / 19°C 28°F / -2°C 24% 29.83 in
(1010 mb)
SSW 25.3 mph
(SSW 41 kph)
- 10SM
11:15
Partly Cloudy
66°F / 19°C 28°F / -2°C 24% 29.83 in
(1010 mb)
W 21.9 mph
(W 35 kph)
- 10SM
10:55
Partly Cloudy
64°F / 18°C 28°F / -2°C 26% 29.83 in
(1010 mb)
SSW 24.2 mph
(SSW 39 kph)
- 10SM
10:35
Partly Cloudy
64°F / 18°C 28°F / -2°C 26% 29.86 in
(1011 mb)
SSW 25.3 mph
(SSW 41 kph)
- 10SM
10:15
Partly Cloudy
64°F / 18°C 28°F / -2°C 26% 29.86 in
(1011 mb)
W 21.9 mph
(W 35 kph)
- 10SM
09:55
Partly Cloudy
63°F / 17°C 28°F / -2°C 27% 29.86 in
(1011 mb)
W 23 mph
(W 37 kph)
- 10SM
09:35
Partly Cloudy
63°F / 17°C 28°F / -2°C 27% 29.89 in
(1012 mb)
W 18.4 mph
(W 30 kph)
- 10SM
09:15
Partly Cloudy
61°F / 16°C 28°F / -2°C 29% 29.89 in
(1012 mb)
W 16.1 mph
(W 26 kph)
- 10SM
08:55
Partly Cloudy
61°F / 16°C 28°F / -2°C 29% 29.89 in
(1012 mb)
SSW 18.4 mph
(SSW 30 kph)
- 10SM
08:35
Partly Cloudy
61°F / 16°C 28°F / -2°C 29% 29.89 in
(1012 mb)
SSW 15 mph
(SSW 24 kph)
- 10SM
08:15
Partly Cloudy
57°F / 14°C 30°F / -1°C 36% 29.89 in
(1012 mb)
SSW 16.1 mph
(SSW 26 kph)
- 10SM
07:55
Clear
57°F / 14°C 30°F / -1°C 36% 29.89 in
(1012 mb)
SSW 19.6 mph
(SSW 32 kph)
- 10SM
07:35
Partly Cloudy
57°F / 14°C 30°F / -1°C 36% 29.89 in
(1012 mb)
SSW 16.1 mph
(SSW 26 kph)
- 10SM
07:15
Partly Cloudy
55°F / 13°C 30°F / -1°C 38% 29.89 in
(1012 mb)
W 15 mph
(W 24 kph)
- 10SM
06:55
Partly Cloudy
55°F / 13°C 30°F / -1°C 38% 29.89 in
(1012 mb)
W 19.6 mph
(W 32 kph)
- 10SM
06:35
Partly Cloudy
54°F / 12°C 30°F / -1°C 41% 29.89 in
(1012 mb)
W 15 mph
(W 24 kph)
- 10SM
06:15
Clear
52°F / 11°C 28°F / -2°C 41% 29.89 in
(1012 mb)
SSW 10.4 mph
(SSW 17 kph)
- 10SM
05:55
Clear
52°F / 11°C 30°F / -1°C 44% 29.89 in
(1012 mb)
SSW 15 mph
(SSW 24 kph)
- 10SM
05:35
Clear
50°F / 10°C 30°F / -1°C 47% 29.89 in
(1012 mb)
SSW 8.1 mph
(SSW 13 kph)
- 10SM
05:15
Clear
48°F / 9°C 30°F / -1°C 50% 29.89 in
(1012 mb)
SW 9.2 mph
(SW 15 kph)
- 10SM
04:55
Clear
50°F / 10°C 32°F / 0°C 50% 29.89 in
(1012 mb)
SW 10.4 mph
(SW 17 kph)
- 10SM
04:35
Clear
52°F / 11°C 28°F / -2°C 41% 29.89 in
(1012 mb)
SSW 8.1 mph
(SSW 13 kph)
- 10SM
04:15
Clear
48°F / 9°C 30°F / -1°C 50% 29.89 in
(1012 mb)
SSW 3.5 mph
(SSW 6 kph)
- 10SM
03:55
Clear
52°F / 11°C 28°F / -2°C 41% 29.89 in
(1012 mb)
Calm - 10SM
03:35
Clear
52°F / 11°C 27°F / -3°C 38% 29.89 in
(1012 mb)
SW 6.9 mph
(SW 11 kph)
- 10SM
03:15
Clear
52°F / 11°C 27°F / -3°C 38% 29.89 in
(1012 mb)
SSW 10.4 mph
(SSW 17 kph)
- 10SM
02:55
Clear
54°F / 12°C 27°F / -3°C 35% 29.89 in
(1012 mb)
SSW 13.8 mph
(SSW 22 kph)
- 10SM
02:35
Clear
54°F / 12°C 27°F / -3°C 35% 29.89 in
(1012 mb)
SSW 10.4 mph
(SSW 17 kph)
- 10SM
02:15
Clear
54°F / 12°C 27°F / -3°C 35% 29.89 in
(1012 mb)
SSW 11.5 mph
(SSW 19 kph)
- 10SM
01:55
Clear
54°F / 12°C 27°F / -3°C 35% 29.89 in
(1012 mb)
SSW 10.4 mph
(SSW 17 kph)
- 10SM
01:35
Clear
54°F / 12°C 27°F / -3°C 35% 29.89 in
(1012 mb)
Calm - 10SM
01:15
Clear
54°F / 12°C 30°F / -1°C 41% 29.92 in
(1013 mb)
SW 5.8 mph
(SW 9 kph)
- 10SM
00:55
Clear
54°F / 12°C 27°F / -3°C 35% 29.92 in
(1013 mb)
SW 6.9 mph
(SW 11 kph)
- 10SM
00:35
Clear
52°F / 11°C 30°F / -1°C 44% 29.92 in
(1013 mb)
SW 8.1 mph
(SW 13 kph)
- 10SM
00:15
Clear
54°F / 12°C 27°F / -3°C 35% 29.92 in
(1013 mb)
SW 6.9 mph
(SW 11 kph)
- 10SM
Time Weather Temperature Dewpoint Humidity Pressure Winds Precip Visibility


Weather for websites

WeatherForYou.com, LLC is not responsible for any damages or problems caused by this service. Current weather conditions are obtained from the closest station including government and personal stations which may have varying degrees of accuracy. Weather forecasts are derived from the NOAA NDFD. Like all things, this site belongs to Jesus Christ... He just trusts us to maintain it. If you have any questions or comments email webmaster@weatherforyou.com

Copyright © 2016, WeatherForYou.com LLC. All rights reserved.